Location: Riedlingen
(48.1569°N, 9.4757°E)
Time: 02:35:28
(UTC+02:00)

ISS - Pass Details

Date: 21 May 2021
Orbit: 417 x 422 km, 51.6° (Epoch: 15 June)

Event Time Altitude Azimuth Distance (km) Brightness Sun altitude
Rises 23:43:54 0° 288° (WNW) 2,369 0.7 -18.3°
Reaches altitude 10° 23:46:02 10° 293° (WNW) 1,505 -0.3 -18.4°
Maximum altitude 23:49:21 52° 11° (NNE) 532 -3.0 -18.6°
Enters shadow 23:51:09 23° 79° (E) 934 -2.1 -18.7°
